Location: Silverdale
(47.6506°N, 122.6941°W)
Time: 04:55:01
(UTC+00:00)

Altair - Pass Details

Date: 05 October 2022
Orbit: 1501 x 1682 km, 47.2° (Epoch: 05 December)

Event Time Altitude Azimuth Distance (km) Brightness Sun altitude
Rises 11:31:10 0° 208° (SSW) 4,720 - -27.8°
Reaches altitude 10° 11:34:29 10° 201° (SSW) 3,765 - -27.3°
Exits shadow 11:37:23 21° 189° (S) 3,023 8.7 -26.8°
Maximum altitude 11:42:58 37° 138° (SE) 2,315 8.5 -26.0°
Drops below altitude 10° 11:51:45 10° 76° (ENE) 3,902 10.7 -24.6°
Sets 11:55:14 0° 69° (ENE) 4,910 11.6 -24.1°
